This demonstration page uses our WeatherBlox Daily Observations layout. Learn more.

Left ArrowRight Arrow

39.51506, -84.39828

Hourly Observations for March 5, 2018

Temp ( °F °C ) Dew Point ( °F °C ) Humidity (%) Winds ( mph kmh ) Pressure ( in mb ) Visibility ( mi km ) Precip ( " mm )
12:15 am 00:15 Clear 34 0.9 19 -7 56 56 NE 8 13 30.36 1028 10 16.0934 N/A
12:35 am 00:35 Clear 33 0.7 19 -7.1 56 56 NE 6 9 30.36 1028 10 16.0934 N/A
12:55 am 00:55 Clear 32 -0.1 19 -7.3 59 59 NNE 5 7 30.36 1028 10 16.0934 N/A
1:15 am 01:15 Clear 31 -0.3 19 -7.5 59 59 NE 7 11 30.36 1028 10 16.0934 N/A
1:35 am 01:35 Clear 32 0.2 20 -6.8 60 60 NE 8 13 30.33 1027 10 16.0934 N/A
1:55 am 01:55 Clear 31 -0.4 20 -6.6 63 63 ENE 8 13 30.33 1027 10 16.0934 N/A
2:15 am 02:15 Clear 32 -0.1 20 -6.9 61 61 ENE 10 17 30.33 1027 10 16.0934 N/A
2:35 am 02:35 Clear 31 -0.3 19 -7.2 60 60 ENE 12 19 30.3 1026 10 16.0934 N/A
2:55 am 02:55 Clear 31 -0.4 20 -6.9 62 62 ENE 13 20 30.3 1026 10 16.0934 N/A
3:15 am 03:15 Clear 31 -0.5 20 -6.9 62 62 ENE 8 13 30.3 1026 10 16.0934 N/A
3:35 am 03:35 Clear 30 -1.2 20 -6.8 66 66 ENE 8 13 30.3 1026 10 16.0934 N/A
3:55 am 03:55 Clear 29 -1.6 20 -6.9 68 68 E 7 11 30.27 1025 10 16.0934 N/A
4:15 am 04:15 Clear 29 -1.4 20 -6.8 67 67 E 7 11 30.27 1025 10 16.0934 N/A
4:35 am 04:35 Clear 29 -1.4 19 -7.1 66 66 E 5 7 30.27 1025 10 16.0934 N/A
4:55 am 04:55 Clear 28 -2.2 19 -7.1 69 69 E 5 7 30.27 1025 10 16.0934 N/A
5:15 am 05:15 Clear 28 -2.2 19 -7 70 70 E 5 7 30.27 1025 10 16.0934 N/A
5:35 am 05:35 Clear 28 -2.4 20 -6.8 72 72 ENE 7 11 30.27 1025 10 16.0934 N/A
5:55 am 05:55 Clear 28 -2.4 20 -6.4 74 74 ENE 7 11 30.27 1025 10 16.0934 N/A
6:15 am 06:15 Clear 28 -2.2 20 -6.5 73 73 ENE 5 7 30.3 1026 10 16.0934 N/A
6:35 am 06:35 Clear 28 -2 20 -6.5 72 72 E 7 11 30.27 1025 10 16.0934 N/A
6:55 am 06:55 Clear 28 -2.3 20 -6.8 72 72 ENE 5 7 30.3 1026 10 16.0934 N/A
7:15 am 07:15 Sunny 29 -1.9 20 -6.5 71 71 ENE 5 7 30.3 1026 10 16.0934 N/A
7:35 am 07:35 Sunny 29 -1.6 21 -6 72 72 ENE 7 11 30.3 1026 10 16.0934 N/A
7:55 am 07:55 Sunny 30 -0.9 21 -6 69 69 ENE 9 15 30.3 1026 10 16.0934 N/A
8:15 am 08:15 Sunny 31 -0.7 21 -6 68 68 E 9 15 30.3 1026 10 16.0934 N/A
8:35 am 08:35 Sunny 32 -0.2 21 -6.2 64 64 E 9 15 30.27 1025 10 16.0934 N/A
8:55 am 08:55 Sunny 33 0.3 21 -6.2 62 62 E 7 11 30.27 1025 10 16.0934 N/A
9:15 am 09:15 Sunny 34 0.9 21 -6.3 59 59 E 9 15 30.27 1025 10 16.0934 N/A
9:35 am 09:35 Sunny 35 1.4 20 -6.6 56 56 E 12 19 30.27 1025 10 16.0934 N/A
9:55 am 09:55 Sunny 36 2 20 -6.9 52 52 ESE 14 22 30.27 1025 10 16.0934 N/A
10:15 am 10:15 Sunny 37 2.5 20 -6.7 51 51 E 10 17 30.27 1025 10 16.0934 N/A
10:35 am 10:35 Sunny 37 2.8 19 -7.3 48 48 E 13 20 30.27 1025 10 16.0934 N/A
10:55 am 10:55 Sunny 38 3.4 19 -7.2 46 46 E 13 20 30.27 1025 10 16.0934 N/A
11:15 am 11:15 Sunny 39 3.8 19 -7.5 44 44 E 13 20 30.24 1024 10 16.0934 N/A
11:35 am 11:35 Sunny 39 4.1 19 -7.3 44 44 E 13 20 30.24 1024 10 16.0934 N/A
11:55 am 11:55 Sunny 40 4.6 19 -7.4 42 42 E 10 17 30.24 1024 10 16.0934 N/A
12:15 pm 12:15 Sunny 41 4.8 19 -7.3 42 42 E 15 24 30.21 1023 10 16.0934 N/A
12:35 pm 12:35 Sunny 41 4.9 19 -7.5 41 41 E 9 15 30.21 1023 10 16.0934 N/A
12:55 pm 12:55 Sunny 42 5.5 17 -8.3 37 37 E 15 24 30.15 1021 10 16.0934 N/A
1:15 pm 13:15 Sunny 42 5.7 15 -9.4 33 33 ESE 17 28 30.15 1021 10 16.0934 N/A
1:35 pm 13:35 Sunny 44 6.8 17 -8.1 34 34 E 14 22 30.12 1020 10 16.0934 N/A
1:55 pm 13:55 Sunny 44 6.7 19 -7.4 36 36 E 14 22 30.12 1020 10 16.0934 N/A
2:15 pm 14:15 Sunny 44 6.4 17 -8.1 35 35 ESE 16 26 30.09 1019 10 16.0934 N/A
2:35 pm 14:35 Sunny 43 6.3 19 -7.4 37 37 ESE 12 19 30.09 1019 10 16.0934 N/A
2:55 pm 14:55 Sunny 43 6.3 18 -8 35 35 E 13 20 30.09 1019 10 16.0934 N/A
3:15 pm 15:15 Sunny 44 6.9 19 -7.4 36 36 E 14 22 30.09 1019 10 16.0934 N/A
3:35 pm 15:35 Sunny 45 7.1 19 -7.3 35 35 E 16 26 30.06 1018 10 16.0934 N/A
3:55 pm 15:55 Sunny 46 7.7 19 -7.3 34 34 ESE 13 20 30.06 1018 10 16.0934 N/A
4:15 pm 16:15 Sunny 46 8 18 -7.8 32 32 E 16 26 30.06 1018 10 16.0934 N/A
4:35 pm 16:35 Sunny 45 7.3 19 -7.4 35 35 E 12 19 30.03 1017 10 16.0934 N/A
4:55 pm 16:55 Sunny 45 7.3 19 -7.3 35 35 ESE 12 19 30.03 1017 10 16.0934 N/A
5:15 pm 17:15 Sunny 45 7.2 19 -7.1 36 36 ESE 8 13 30.03 1017 10 16.0934 N/A
5:35 pm 17:35 Mostly Cloudy 45 7.2 20 -6.7 37 37 E 8 13 30 1016 10 16.0934 N/A
5:55 pm 17:55 Partly Cloudy 45 7 20 -6.7 37 37 E 9 15 30 1016 10 16.0934 N/A
6:15 pm 18:15 Mostly Cloudy 44 6.7 20 -6.5 39 39 E 12 19 30 1016 10 16.0934 N/A
6:35 pm 18:35 Cloudy 44 6.7 20 -6.7 38 38 E 7 11 30 1016 10 16.0934 N/A
6:55 pm 18:55 Cloudy 44 6.7 20 -6.9 38 38 E 8 13 30 1016 10 16.0934 N/A
7:15 pm 19:15 Cloudy 44 6.6 20 -6.7 38 38 E 9 15 29.97 1015 10 16.0934 N/A
7:35 pm 19:35 Cloudy 44 6.5 20 -6.5 39 39 E 7 11 30 1016 10 16.0934 N/A
7:55 pm 19:55 Cloudy 44 6.4 21 -6 41 41 E 7 11 30 1016 10 16.0934 N/A
8:15 pm 20:15 Cloudy 43 6.3 21 -6 41 41 E 10 17 29.97 1015 10 16.0934 N/A
8:35 pm 20:35 Cloudy 43 6.3 20 -6.6 39 39 E 10 17 29.97 1015 10 16.0934 N/A
8:55 pm 20:55 Cloudy 43 6.2 20 -6.6 40 40 E 8 13 29.94 1014 10 16.0934 N/A
9:15 pm 21:15 Cloudy 43 5.9 21 -6 42 42 E 13 20 29.94 1014 10 16.0934 N/A
9:35 pm 21:35 Cloudy 43 6 21 -6.1 42 42 E 7 11 29.94 1014 10 16.0934 N/A
9:50 pm 21:50 Cloudy 42 5.8 21 -5.9 43 43 ENE 8 13 29.94 1014 10 16.0934 N/A
10:15 pm 22:15 Cloudy 42 5.8 21 -6.2 42 42 E 6 9 29.94 1014 10 16.0934 N/A
10:35 pm 22:35 Cloudy with Light Rain 42 5.4 22 -5.3 46 46 ESE 7 11 29.91 1013 10 16.0934 N/A
10:55 pm 22:55 Cloudy 43 5.9 20 -6.4 41 41 ESE 6 9 29.91 1013 10 16.0934 N/A
11:15 pm 23:15 Cloudy 43 6.1 18 -7.7 37 37 SE 3 6 29.94 1014 10 16.0934 N/A
11:35 pm 23:35 Cloudy with Light Rain 42 5.4 21 -6 44 44 ESE 7 11 29.91 1013 10 16.0934 N/A
11:55 pm 23:55 Cloudy with Light Rain 40 4.6 24 -4.2 53 53 E 8 13 29.91 1013 10 16.0934 N/A

Powered by AerisWeather